Oxford, NC

1:20 PM EDT on September 16, 2019 (GMT -0400)
Henderson-Oxford

Weather History for KHNZ - July, 2019

Change the Weather History Date:

Monday, July 22, 2019

  Actual Average (KTDF) Record (KTDF)
Temperature  
Mean Temperature 82 °F -  
Max Temperature 93 °F 90 °F 101 °F (1977)
Min Temperature 71 °F 65 °F 51 °F (2007)
Cooling Degree Days 17    
Growing Degree Days 32 (Base 50)    
Moisture  
Dew Point 66 °F    
Average Humidity 64    
Maximum Humidity 87    
Minimum Humidity 37    
Precipitation  
Precipitation 0.00 in - - ()
Sea Level Pressure  
Sea Level Pressure 29.93 in    
Wind  
Wind Speed 6 mph (SW)    
Max Wind Speed 17 mph    
Max Gust Speed 28 mph    
Visibility 10 miles    
Events Rain    
Averages and records for this station are not official NWS values.
T = Trace of Precipitation, MM = Missing Value Source: NWS Daily Summary

Daily Weather History Graph

Daily Weather History Graph

Search for Another Location

Airport or City:

Astronomy

Jul. 22, 2019 Rise Set
Actual Time 6:12 AM EDT 8:27 PM EDT
Civil Twilight 5:43 AM EDT 8:57 PM EDT
Nautical Twilight 5:07 AM EDT 9:32 PM EDT
Astronomical Twilight 4:28 AM EDT 10:11 PM EDT
Moon 11:56 PM EDT (7/22) 11:19 AM EDT (7/22)
Length of Visible Light 15h 13m
Length of Day
14h 15m
Waning Gibbous, 72% of the Moon is Illuminated
Jul 22
Waning Gibbous
Jul 24
Last Quarter
Jul 31
New
Aug 7
First Quarter
Aug 15
Full

Hourly Weather History & Observations

Time (EDT) Temp. Heat Index Dew Point Humidity Pressure Visibility Wind Dir Wind Speed Gust Speed Precip Events Conditions
12:15 AM 73.6 °F - 69.6 °F 87% 29.96 in 10.0 mi SSW 3.5 mph - N/A   Clear
12:35 AM 73.8 °F - 68.9 °F 85% 29.96 in 10.0 mi SW 5.8 mph - N/A   Clear
12:55 AM 74.5 °F - 68.2 °F 81% 29.96 in 10.0 mi SW 5.8 mph - N/A   Clear
1:15 AM 75.0 °F - 67.8 °F 78% 29.96 in 10.0 mi SSW 4.6 mph - N/A   Clear
1:35 AM 74.8 °F - 67.5 °F 78% 29.96 in 10.0 mi SW 5.8 mph - N/A   Clear
1:55 AM 74.7 °F - 67.3 °F 78% 29.96 in 10.0 mi Calm Calm - N/A   Clear
2:15 AM 74.5 °F - 67.3 °F 78% 29.96 in 10.0 mi Calm Calm - N/A   Clear
2:35 AM 73.8 °F - 67.3 °F 80% 29.96 in 10.0 mi Calm Calm - N/A   Clear
2:55 AM 73.9 °F - 67.6 °F 81% 29.96 in 10.0 mi Calm Calm - N/A   Scattered Clouds
3:15 AM 73.4 °F - 67.3 °F 81% 29.96 in 10.0 mi Calm Calm - N/A   Scattered Clouds
3:35 AM 73.4 °F - 67.5 °F 82% 29.96 in 10.0 mi Calm Calm - N/A   Clear
3:55 AM 72.7 °F - 67.1 °F 83% 29.95 in 10.0 mi Calm Calm - N/A   Clear
4:15 AM 72.3 °F - 67.1 °F 84% 29.95 in 10.0 mi Calm Calm - N/A   Clear
4:35 AM 72.3 °F - 66.7 °F 83% 29.95 in 10.0 mi Calm Calm - N/A   Clear
4:55 AM 72.0 °F - 66.6 °F 83% 29.95 in 10.0 mi Calm Calm - N/A   Clear
5:15 AM 72.1 °F - 66.4 °F 82% 29.95 in 10.0 mi Calm Calm - N/A   Clear
5:35 AM 72.3 °F - 66.2 °F 81% 29.95 in 10.0 mi Calm Calm - N/A   Clear
5:55 AM 71.6 °F - 66.2 °F 83% 29.95 in 10.0 mi Calm Calm - N/A   Clear
6:15 AM 71.8 °F - 66.2 °F 83% 29.95 in 10.0 mi Calm Calm - N/A   Clear
6:35 AM 71.6 °F - 66.2 °F 83% 29.95 in 10.0 mi Calm Calm - N/A   Clear
6:55 AM 72.5 °F - 66.2 °F 81% 29.95 in 10.0 mi Calm Calm - N/A   Clear
7:15 AM 73.2 °F - 66.4 °F 79% 29.95 in 10.0 mi SSW 9.2 mph - N/A   Clear
7:35 AM 74.3 °F - 66.7 °F 77% 29.96 in 10.0 mi SSW 8.1 mph - N/A   Clear
7:55 AM 75.9 °F - 67.3 °F 74% 29.96 in 10.0 mi SSW 3.5 mph - N/A   Clear
8:15 AM 77.4 °F - 67.6 °F 72% 29.96 in 10.0 mi Calm Calm - N/A   Clear
8:35 AM 79.0 °F - 68.0 °F 69% 29.96 in 10.0 mi SW 10.4 mph - N/A   Clear
8:55 AM 81.0 °F 83.8 °F 68.2 °F 65% 29.96 in 10.0 mi SSW 4.6 mph - N/A   Clear
9:15 AM 82.2 °F 85.1 °F 67.8 °F 62% 29.96 in 10.0 mi SW 12.7 mph 18.4 mph N/A   Clear
9:35 AM 83.3 °F 86.4 °F 68.2 °F 60% 29.96 in 10.0 mi SW 13.8 mph 19.6 mph N/A   Clear
9:55 AM 84.2 °F 87.3 °F 67.8 °F 58% 29.96 in 10.0 mi SW 13.8 mph 19.6 mph N/A   Clear
10:15 AM 84.6 °F 87.6 °F 67.6 °F 57% 29.96 in 10.0 mi SW 13.8 mph 19.6 mph N/A   Clear
10:35 AM 85.3 °F 88.5 °F 67.8 °F 56% 29.97 in 10.0 mi WSW 12.7 mph 16.1 mph N/A   Clear
10:55 AM 87.6 °F 91.1 °F 68.0 °F 52% 29.97 in 10.0 mi WSW 12.7 mph 17.3 mph N/A   Clear
11:15 AM 88.2 °F 91.7 °F 67.8 °F 51% 29.96 in 10.0 mi WSW 8.1 mph 18.4 mph N/A   Clear
11:35 AM 89.6 °F 92.6 °F 67.1 °F 47% 29.95 in 10.0 mi SW 15.0 mph 21.9 mph N/A   Clear
11:55 AM 89.2 °F 92.0 °F 66.4 °F 47% 29.95 in 10.0 mi SW 16.1 mph 23.0 mph N/A   Clear
12:15 PM 89.4 °F 91.5 °F 65.7 °F 45% 29.94 in 10.0 mi West 9.2 mph 17.3 mph N/A   Clear
12:35 PM 91.0 °F 92.6 °F 64.2 °F 41% 29.94 in 10.0 mi WSW 15.0 mph 21.9 mph N/A   Clear
12:55 PM 91.4 °F 93.2 °F 64.8 °F 41% 29.94 in 10.0 mi SW 17.3 mph 23.0 mph N/A   Scattered Clouds
1:15 PM 91.6 °F 93.5 °F 64.9 °F 41% 29.93 in 10.0 mi WSW 10.4 mph 17.3 mph N/A   Scattered Clouds
1:35 PM 91.8 °F 93.0 °F 63.7 °F 39% 29.93 in 10.0 mi SSW 15.0 mph 21.9 mph N/A   Scattered Clouds
1:55 PM 93.9 °F 95.6 °F 63.7 °F 37% 29.92 in 10.0 mi SW 15.0 mph 19.6 mph N/A   Scattered Clouds
2:15 PM 90.0 °F 91.7 °F 64.6 °F 43% 29.92 in 10.0 mi WSW 10.4 mph 19.6 mph N/A   Clear
2:35 PM 90.1 °F 91.6 °F 64.2 °F 42% 29.91 in 10.0 mi WSW 10.4 mph 18.4 mph N/A   Clear
2:55 PM 90.3 °F 91.9 °F 64.6 °F 42% 29.91 in 10.0 mi WSW 10.4 mph 17.3 mph N/A   Clear
3:15 PM 92.1 °F 94.0 °F 64.4 °F 40% 29.90 in 10.0 mi WSW 13.8 mph 19.6 mph N/A   Clear
3:35 PM 92.3 °F 93.8 °F 63.7 °F 39% 29.89 in 10.0 mi SW 11.5 mph 20.7 mph N/A   Clear
3:55 PM 92.5 °F 94.6 °F 64.8 °F 40% 29.89 in 10.0 mi SW 15.0 mph 23.0 mph N/A   Clear
4:15 PM 90.7 °F 92.8 °F 65.1 °F 43% 29.89 in 10.0 mi WSW 11.5 mph 23.0 mph N/A   Clear
4:35 PM 90.5 °F 92.5 °F 65.3 °F 43% 29.88 in 10.0 mi WSW 13.8 mph 20.7 mph N/A   Clear
4:55 PM 90.1 °F 92.3 °F 65.3 °F 44% 29.88 in 10.0 mi SW 10.4 mph 24.2 mph N/A   Clear
5:15 PM 89.2 °F 90.9 °F 64.9 °F 44% 29.88 in 10.0 mi WSW 10.4 mph - N/A   Clear
5:35 PM 89.6 °F 91.5 °F 64.8 °F 44% 29.87 in 10.0 mi WSW 10.4 mph 17.3 mph N/A   Clear
5:55 PM 88.7 °F 90.8 °F 65.3 °F 46% 29.87 in 10.0 mi SW 13.8 mph 17.3 mph N/A   Clear
6:15 PM 88.9 °F 91.0 °F 65.5 °F 46% 29.87 in 10.0 mi SSW 12.7 mph 17.3 mph N/A   Clear
6:35 PM 87.8 °F 90.0 °F 65.7 °F 48% 29.87 in 10.0 mi SW 10.4 mph - N/A   Clear
6:55 PM 87.1 °F 89.2 °F 65.8 °F 49% 29.87 in 10.0 mi WSW 8.1 mph - N/A   Clear
7:15 PM 86.0 °F 88.5 °F 66.4 °F 52% 29.88 in 10.0 mi SW 5.8 mph - N/A   Clear
7:35 PM 85.1 °F 87.7 °F 66.6 °F 54% 29.87 in 10.0 mi SSW 8.1 mph - N/A   Clear
7:55 PM 82.0 °F 83.9 °F 65.7 °F 57% 29.89 in 10.0 mi West 5.8 mph - N/A   Scattered Clouds
8:15 PM 79.5 °F - 61.5 °F 54% 29.88 in 10.0 mi WSW 4.6 mph - N/A   Scattered Clouds
8:35 PM 79.3 °F - 61.0 °F 53% 29.88 in 10.0 mi Calm Calm - N/A   Scattered Clouds
8:55 PM 79.5 °F - 63.7 °F 58% 29.90 in 10.0 mi SSW 13.8 mph 27.6 mph N/A   Mostly Cloudy
9:15 PM 72.0 °F - 66.2 °F 82% 29.92 in 7.0 mi NW 5.8 mph 10.4 mph N/A Rain Light Rain
9:35 PM 72.5 °F - 66.9 °F 83% 29.92 in 10.0 mi WSW 5.8 mph - N/A   Scattered Clouds
9:55 PM 72.5 °F - 67.3 °F 84% 29.92 in 10.0 mi Calm Calm - N/A   Clear
10:15 PM 72.5 °F - 67.1 °F 83% 29.92 in 10.0 mi Calm Calm - N/A Rain Light Rain
10:35 PM 72.5 °F - 67.1 °F 83% 29.92 in 10.0 mi Calm Calm - N/A   Clear
10:55 PM 72.3 °F - 67.3 °F 84% 29.92 in 10.0 mi Calm Calm - N/A Rain Light Rain
11:15 PM 72.0 °F - 67.1 °F 85% 29.92 in 10.0 mi Calm Calm - N/A   Clear
11:35 PM 71.8 °F - 67.3 °F 86% 29.92 in 10.0 mi Calm Calm - N/A   Scattered Clouds
11:55 PM 72.0 °F - 66.6 °F 83% 29.91 in 10.0 mi SW 5.8 mph - N/A   Clear